SCP
1 1 1 1 2 2 2 2 2 2 2 3 7 9 7 4 2 1 1 1 1 1 1 1 1 1 1 1 1 1 1 1 1 1 1 1 1 1 1 1 1 1 1
1 1 1 1 2 2 2 2 2 2 2 3 6 8 6 3 1 1 1 1 1 1 1 1 1 1 1 1 1 1 1 1 1 1 1 1 1 1 1 1 1 1 1
1 1 1 1 2 2 2 2 2 2 3 4 5 5 3 2 1 1 1 1 2 1 1 1 1 1 1 1 1 1 1 2 2 2 1 1 1 1 1 2 2 2 2
1 1 1 1 1 2 2 1 2 2 3 4 4 3 2 1 1 1 1 1 1 2 2 2 1 1 1 1 1 1 2 2 2 2 1 1 1 1 2 2 2 2 3
1 1 1 1 1 1 2 2 2 2 3 3 3 2 2 1 1 1 1 2 2 2 2 2 2 2 2 2 2 2 2 2 2 1 1 1 1 1 2 2 2 3 3
1 2 2 2 2 2 2 2 3 3 3 2 2 2 1 1 1 1 1 2 2 2 2 2 2 2 2 2 3 2 2 2 2 2 1 1 1 1 2 2 2 2 3
1 1 2 2 2 2 3 3 4 4 3 2 2 2 1 1 1 1 1 1 1 2 2 3 3 3 3 3 3 2 2 2 2 2 2 2 2 2 2 2 2 2 2
1 1 2 2 2 2 3 3 3 3 3 2 2 2 2 1 1 1 1 1 1 2 2 3 3 3 3 3 3 3 2 2 2 2 2 2 2 2 2 2 2 2 2
1 1 2 2 2 2 2 2 2 2 2 2 2 2 2 2 1 1 1 1 1 2 2 3 3 3 3 3 3 3 3 3 3 2 2 2 2 2 2 2 2 2 2
1 1 2 2 2 2 2 2 2 2 2 2 2 2 2 2 1 1 1 2 2 2 2 2 3 3 3 3 3 3 3 3 3 3 2 2 2 3 3 2 2 2 2
1 1 2 2 2 2 2 2 2 2 2 2 2 2 2 2 2 2 2 2 2 2 2 2 2 2 3 3 3 3 4 4 4 3 2 2 2 2 2 2 2 2 2
1 2 2 2 2 2 2 2 2 2 2 2 2 2 2 1 1 2 2 2 3 3 2 2 2 2 2 2 3 3 4 4 3 3 2 2 2 2 2 2 2 3 3
2 2 2 2 2 2 2 2 2 2 2 2 2 2 2 2 2 2 2 3 3 3 3 2 2 2 2 2 2 3 3 3 3 2 2 2 2 2 2 2 2 2 2
3 3 3 3 3 2 2 2 2 2 2 3 3 2 2 2 3 3 3 3 4 4 3 3 3 2 2 2 2 2 2 2 2 2 2 2 2 2 2 2 2 2 2
3 3 4 4 4 3 3 3 3 4 4 5 5 4 4 4 4 4 4 4 4 4 4 4 3 3 2 2 2 2 2 2 2 2 2 2 2 2 2 1 1 1 1
2 3 4 5 5 4 4 5 5 6 7 8 8 9 9 8 7 6 6 5 5 5 6 5 4 3 2 2 1 1 1 2 2 2 2 2 1 1 1 1 1 1 1
3 3 3 4 5 5 5 6 7 8 10 12 13 14 14 13 11 9 8 6 6 6 6 6 5 3 2 1 1 1 1 1 1 2 2 2 1 1 1 1 1 0 1
3 3 3 4 4 4 5 6 6 8 10 14 18 19 19 17 14 11 9 8 7 6 6 7 6 4 2 1 0 0 1 1 1 1 2 2 1 1 1 1 1 1 1
3 3 3 3 3 3 4 4 5 6 9 14 20 23 23 20 18 15 12 10 9 7 7 7 7 5 3 1 0 0 1 1 2 2 2 2 1 1 1 1 1 1 1
3 3 3 3 3 3 4 4 4 6 9 14 20 25 25 22 19 17 14 11 10 8 7 7 7 5 3 1 1 0 1 2 2 2 2 1 1 1 1 1 2 2 2
4 4 4 4 5 6 7 7 7 9 12 15 19 22 20 17 15 14 12 10 9 8 7 7 6 4 2 1 1 1 1 1 2 2 2 2 1 0 0 1 1 2 2
4 4 5 5 6 8 10 10 10 11 12 13 14 13 11 9 9 10 9 8 7 7 6 5 4 3 2 1 1 0 0 1 1 2 2 1 1 0 0 0 1 1 1
4 5 6 6 7 8 9 9 9 9 9 8 7 5 4 5 6 8 8 8 7 6 5 4 3 2 2 1 1 0 0 0 1 1 1 1 0 0 0 0 0 0 1
6 6 7 8 9 9 8 7 7 6 6 5 5 4 3 4 6 7 7 7 6 5 4 3 2 2 2 1 1 1 0 0 0 1 0 0 0 0 0 0 0 1 1
7 7 8 9 9 9 8 7 6 5 5 5 5 4 4 4 5 5 5 5 4 4 3 3 2 2 2 1 1 1 1 0 0 0 0 1 1 1 1 1 1 1 1
7 8 8 8 8 8 8 7 6 5 4 5 5 5 4 4 4 4 4 3 2 2 2 2 2 2 1 1 0 0 0 0 0 0 1 1 1 1 1 2 2 2 1
Wind_Speed
6 6 6 5 5 5 4 4 3 3 3 2 2 2 2 1 1 0 1 1 1 1 2 2 1 2 2 2 2 2 2 2 2 2 2 2 3 2 2 2 2 3 3
7 7 7 6 6 5 4 4 4 3 3 2 2 1 1 1 1 0 1 0 1 2 1 2 2 1 1 1 2 2 3 2 1 2 2 2 3 3 3 3 3 3 2
8 8 7 6 6 6 5 4 4 4 3 3 2 2 2 1 1 1 1 0 1 1 2 2 3 2 2 1 1 2 2 2 1 1 2 2 1 1 3 3 2 2 2
8 8 8 7 7 6 6 5 4 4 3 3 3 3 2 2 1 1 1 1 0 1 1 1 2 2 2 1 2 0 2 2 2 1 1 2 2 2 1 2 3 3 2
9 8 8 7 7 7 6 6 5 4 4 3 3 3 2 2 1 1 1 1 0 1 1 1 1 1 1 1 2 1 2 1 2 1 1 1 2 4 3 2 2 2 2
9 8 8 7 7 7 6 6 5 5 4 4 3 3 2 2 1 1 1 2 1 0 1 1 1 1 1 1 1 1 1 2 2 2 1 1 2 2 2 3 2 2 2
9 9 9 8 8 7 7 6 6 5 5 5 4 3 3 3 3 3 1 2 1 0 0 1 1 1 1 1 2 1 2 1 2 2 2 2 2 2 2 2 2 2 2
9 9 9 9 8 8 7 6 6 6 5 5 4 3 3 2 2 2 2 1 1 1 1 1 1 1 1 1 1 2 1 1 2 2 2 3 2 2 2 3 3 3 2
9 9 9 9 8 8 7 7 6 5 5 5 4 3 3 2 1 1 2 1 1 1 1 1 1 1 1 2 2 1 2 2 2 2 2 3 2 2 3 3 3 3 3
8 8 8 8 8 8 7 7 6 5 5 5 4 3 3 3 2 2 1 1 1 1 1 1 1 1 1 1 2 1 1 2 1 2 2 2 2 2 2 2 3 3 4
8 8 7 8 8 8 8 7 6 6 5 5 4 3 3 3 3 2 2 1 1 1 1 1 1 1 1 1 1 3 2 2 2 2 1 2 3 3 2 2 2 2 2
7 7 8 8 8 8 7 7 6 6 5 5 5 4 4 3 3 2 2 1 1 1 1 1 1 1 1 2 2 2 2 2 2 2 2 2 2 2 3 2 2 2 2
6 7 7 7 7 7 6 6 6 6 6 5 5 5 4 4 3 2 2 2 1 1 0 0 1 1 1 1 2 2 2 2 3 3 3 3 2 3 2 3 2 2 2
6 6 7 7 7 6 6 6 5 5 5 5 5 4 3 3 3 2 2 2 1 1 1 0 1 1 1 1 2 2 2 2 2 3 3 2 2 2 3 2 2 2 2
7 6 6 6 6 7 6 6 5 5 5 5 4 4 3 3 2 2 2 2 1 1 0 1 1 1 1 1 2 3 2 2 2 2 2 1 2 4 3 3 2 2 2
7 7 6 6 7 7 6 6 6 6 5 5 4 4 4 3 3 3 2 2 1 1 1 1 1 1 1 2 2 4 2 1 2 1 1 0 1 1 1 2 3 4 3
6 6 6 6 6 6 6 6 6 6 5 5 4 4 4 4 3 3 2 2 2 1 1 1 1 1 1 2 1 3 3 2 1 1 2 2 2 1 0 1 2 1 1
5 5 5 6 6 6 6 6 6 6 5 5 4 4 4 4 3 3 2 2 2 1 1 1 1 1 1 1 1 3 3 1 1 1 1 2 1 1 1 1 1 2 2
4 4 5 5 5 6 6 6 6 6 5 4 4 4 4 4 3 3 3 2 2 2 2 1 1 1 1 1 1 4 3 1 1 1 1 2 1 2 1 2 2 2 2
3 4 4 5 5 5 5 6 6 5 5 4 4 4 3 3 3 2 2 2 2 2 2 2 1 1 1 2 1 4 3 2 2 1 2 2 1 2 1 3 3 3 3
4 4 4 5 5 5 5 5 5 5 4 4 4 4 3 3 3 2 2 2 2 2 2 2 2 2 1 3 3 3 3 3 3 1 1 2 3 2 2 4 3 3 4
5 5 5 4 4 5 5 5 4 4 4 4 4 4 3 3 2 2 2 2 2 3 2 2 2 2 2 1 3 4 5 6 3 2 1 2 3 3 4 4 2 3 4
4 4 5 4 4 4 4 4 4 4 4 4 4 3 3 2 2 2 2 2 2 2 1 2 2 1 1 2 4 5 5 5 4 2 3 1 3 4 5 6 5 5 4
4 4 4 4 4 4 4 4 4 4 4 4 3 3 3 3 2 2 2 1 1 1 1 1 2 1 1 0 0 2 2 4 4 3 2 5 6 5 3 3 5 4 3
3 4 4 4 4 4 4 4 4 4 4 3 3 3 3 2 2 2 0 1 0 1 2 2 2 2 2 1 2 3 2 3 2 3 3 3 3 3 2 2 2 3 3
3 3 4 4 4 4 4 4 3 4 3 3 3 2 2 2 2 2 2 2 1 2 2 2 3 1 1 2 0 2 2 2 3 4 3 3 3 3 2 3 3 3 3
Wind_Direction
169 165 167 168 165 163 164 171 179 179 192 192 206 188 184 188 206 223 21 336 316 316 303 309 293 281 281 293 281 275 248 249 254 251 230 207 202 205 202 212 218 200 209
168 169 170 170 168 166 171 174 180 185 195 191 207 200 177 189 175 186 116 299 311 301 280 306 295 299 291 286 288 285 292 280 239 264 252 218 187 193 185 193 199 207 204
178 173 175 177 173 170 178 176 175 180 193 194 184 163 163 181 175 182 164 189 313 331 340 333 322 320 300 303 278 276 276 283 252 251 281 281 264 175 170 182 195 201 203
178 174 174 177 175 173 173 170 169 172 178 191 194 200 198 196 198 218 133 181 240 317 330 326 318 313 311 314 277 306 285 281 278 239 265 294 325 286 208 185 183 188 203
174 173 173 172 171 169 167 161 162 166 171 184 185 210 212 218 202 192 167 258 208 282 312 313 311 308 306 327 331 351 298 289 299 295 284 265 255 259 264 245 195 196 211
171 171 169 166 168 164 166 162 160 167 171 180 184 201 206 224 227 228 231 240 224 244 306 283 301 298 325 339 296 297 270 292 302 295 285 276 273 270 267 264 240 226 221
174 173 172 170 170 168 167 165 164 169 173 180 189 201 214 216 222 247 232 271 269 234 304 295 283 293 302 294 295 283 305 289 288 285 286 275 269 276 280 277 272 262 240
175 175 172 171 170 171 169 168 170 171 170 176 184 195 214 229 228 247 281 270 297 341 8 310 273 280 281 269 269 277 277 282 275 271 279 278 278 275 261 256 260 259 242
173 175 171 171 170 169 168 168 168 169 171 173 176 182 201 227 230 218 242 257 303 302 295 272 259 249 262 276 264 282 285 281 274 268 245 267 274 267 263 253 251 264 264
170 171 170 170 167 166 163 165 163 165 171 170 180 175 185 194 207 223 244 316 324 336 309 276 274 274 261 257 263 263 272 272 274 290 308 288 281 279 268 267 256 260 275
167 166 167 166 165 167 163 164 163 165 168 169 172 169 175 182 192 195 216 231 261 275 278 295 297 287 287 280 279 289 288 283 290 281 263 263 296 293 283 260 256 255 260
162 165 164 164 168 171 167 165 165 168 168 164 167 166 170 180 195 189 209 220 232 249 262 288 298 300 308 304 290 290 300 294 293 298 296 280 262 261 277 278 270 270 266
163 164 163 167 171 171 169 169 169 169 165 162 168 164 175 182 194 194 203 207 215 246 267 263 297 304 314 300 292 295 301 304 309 311 307 300 291 277 280 274 274 264 251
169 168 166 168 170 169 167 170 173 168 165 164 168 166 180 187 190 188 197 200 209 218 249 240 265 277 291 296 293 290 305 308 307 311 314 312 302 294 286 267 268 266 265
170 170 169 162 167 165 164 167 171 171 168 169 174 169 174 180 182 178 185 192 208 208 202 232 247 258 244 303 305 282 276 291 297 304 302 341 23 19 340 321 304 280 265
171 168 166 162 166 165 167 167 170 168 166 170 172 166 171 176 181 184 187 190 200 218 206 216 245 277 332 32 337 296 286 278 279 282 294 198 155 107 85 13 4 349 301
174 172 171 171 170 168 167 170 171 169 169 173 171 166 170 175 184 187 179 197 215 221 228 234 252 289 12 39 317 288 287 286 302 305 297 289 72 161 184 149 208 239 304
178 176 175 173 172 170 166 166 164 168 173 175 175 175 179 177 177 184 189 202 218 227 244 257 280 299 39 72 271 273 249 283 308 297 288 298 7 16 340 266 243 246 223
179 179 179 171 164 167 164 164 166 167 171 173 180 179 185 184 184 187 196 205 214 220 223 215 223 251 75 69 287 276 254 242 257 259 266 270 253 76 347 267 267 271 249
156 159 159 154 154 160 161 168 168 170 174 176 179 174 184 189 193 193 204 203 211 221 227 192 195 199 182 136 225 275 272 272 258 222 180 107 22 100 215 255 267 275 284
143 143 149 153 152 158 164 172 170 174 174 169 170 172 177 183 182 185 195 206 215 213 228 210 198 190 187 164 187 248 281 290 276 259 227 121 138 183 223 261 275 290 294
140 144 149 150 150 159 168 167 168 164 163 166 166 166 178 190 167 178 194 208 220 209 210 212 223 188 177 183 189 223 252 294 288 289 303 87 139 196 223 240 269 279 274
139 145 147 148 153 163 174 170 160 159 164 166 168 172 178 186 186 191 195 210 214 232 225 230 237 230 198 164 190 215 233 255 271 304 32 59 202 216 212 214 228 237 247
139 143 148 151 151 159 171 167 158 165 171 171 176 181 188 192 181 209 213 228 241 253 246 255 257 242 220 272 258 236 217 216 234 249 188 197 217 240 263 200 207 227 251
141 147 153 156 157 158 161 161 160 170 181 183 189 196 193 184 185 183 176 251 229 326 281 278 266 263 243 69 360 305 298 304 322 293 255 242 225 222 230 242 238 239 226
143 149 157 159 157 157 156 155 162 175 192 197 201 208 197 186 203 181 169 139 191 153 194 272 295 292 26 96 320 299 301 293 283 275 266 266 269 269 266 262 252 244 252